Regional Weather Roundup
Issued by NWS Wakefield, VA

Home | Current Version | Previous Version | Text Only | Print | Product List | Glossary On
Versions: 1 2 3 4 5 6 7 8 9 10 11 12 13 14 15 16 17 18 19 20 21 22 23 24 25 26 27 28 29 30 31 32 33 34 35 36 37 38 39 40 41 42 43 44 45 46 47 48 49 50
000
ASUS41 KAKQ 031810
RWRAKQ

REGIONAL WEATHER ROUNDUP
NATIONAL WEATHER SERVICE WAKEFIELD VA
100 PM EST TUE MAR 03 2015

Note: "fair" indicates few or no clouds below 12,000 feet with no
significant weather and/or obstructions to visibility. * = Denotes
station may not report precipitation (e.g., rain,snow,etc.),
thunder or fog.

VAZ042-051-052>054-056-031900-
NORTHERN VIRGINIA

CITY           SKY/WX    TMP DP  RH WIND       PRES   REMARKS
WASH NATIONAL  LGT RAIN  35  21  56 S10       30.32F
DULLES         CLOUDY    31  17  56 S13G18    30.29F WCI  21
FORT BELVOIR   LGT RAIN  32  19  59 SE8       30.31F
QUANTICO       CLOUDY    33  22  63 S13       30.34F WCI  24
FREDERICKSBRG* CLOUDY    35  20  52 S8        30.32F
STAFFORD*      CLOUDY    33  14  45 S8        30.35F
WARRENTON      CLOUDY    35  22  60 S8        30.29F
CULPEPER*      CLOUDY    36  18  48 S8        30.29F
MANASSAS*      CLOUDY    34  21  60 S13       30.31F WCI  25
LEESBURG*      CLOUDY    32  21  64 S14       30.28F WCI  22
WINCHESTER     CLOUDY    34  12  40 SE14G21   30.20F WCI  24
FRONT ROYAL*   CLOUDY    34  18  51 S9        30.20F
LURAY*         CLOUDY    37  25  60 SW16G22   30.19F
$$

VAZ048-049-060>072-079>083-031900-
CENTRAL AND SOUTH CENTRAL VIRGINIA

CITY           SKY/WX    TMP DP  RH WIND       PRES   REMARKS
RICHMOND       CLOUDY    36  20  52 S7        30.33F
CHESTERFIELD*  CLOUDY    36  12  38 CALM      30.34F
PETERSBURG*    CLOUDY    38  20  47 S5        30.33F
HANOVER        CLOUDY    35  18  49 S8        30.35F
TAPPAHANNOCK*  CLOUDY    35  15  45 SE5       30.34F
QUINTON*       CLOUDY    34  19  54 S6        30.34F
CHARLOTTSVILLE CLOUDY    33  16  49 S9        30.27F
GORDONSVILLE*  CLOUDY    33  17  51 S8        30.28F
ORANGE*        CLOUDY    34  19  55 S9        30.31F
LOUISA*        CLOUDY    36  18  48 S3        30.29F
BUMPASS*       CLOUDY    34  16  47 S5        30.32F
FARMVILLE*     CLOUDY    39  19  45 S3        30.31F
CREWE*         CLOUDY    36  16  44 CALM      30.32F
FORT PICKETT*  CLOUDY    36  18  49 S6        30.32F
CHASE CITY*    CLOUDY    38  21  51 CALM      30.31F
CLARKSVILLE*   CLOUDY    36  21  55 CALM      30.32F
SOUTH HILL*    CLOUDY    36  20  52 S3        30.37F
LAWRENCEVILLE* CLOUDY    37  22  56 E6        30.31F
EMPORIA*       CLOUDY    36  23  60 E6        30.33F
$$

VAZ088>098-031900-
SOUTHEAST VIRGINIA

CITY           SKY/WX    TMP DP  RH WIND       PRES   REMARKS
NORFOLK        CLOUDY    36  27  69 NE8       30.34F
VIRGINIA BEACH CLOUDY    39  27  62 E6        30.34F
NORFOLK NAVAL  CLOUDY    38  27  64 E7        30.35F
WEST POINT*    CLOUDY    37  22  55 SE10      30.35F
SALUDA*        CLOUDY    33  22  62 CALM      30.34F
NEWPORT NEWS   CLOUDY    38  25  59 SE6       30.34F
LANGLEY AFB    CLOUDY    36  27  69 E6        30.33F
FORT EUSTIS    CLOUDY    37  25  63 S3        30.32F
WILLIAMSBURG*  CLOUDY    39  25  56 S5        30.35F
HR EXEC AP*    CLOUDY    41  28  60 E6        30.36F
FRANKLIN*      CLOUDY    39  28  64 CALM      30.34F
WAKEFIELD      CLOUDY    38  24  57 VRB3      30.34F
$$

VAZ020-022-025-037-045-031900-
WEST CENTRAL AND SOUTHWEST VIRGINIA

CITY           SKY/WX    TMP DP  RH WIND       PRES   REMARKS
STAUNTON*      CLOUDY    33  19  56 S13G21    30.23F WCI  24
WAYNESBORO*    CLOUDY    32  21  63 S6        30.21F
HOT SPRINGS VA SNOW      29  29 100 S12G18    30.08F VSB<1/4 WCI  19
LYNCHBURG      CLOUDY    34  19  54 S9        30.30F
DANVILLE       CLOUDY    39  18  42 CALM      30.31F
SOUTH BOSTON*  CLOUDY    37  18  46 CALM      30.31F
MARTINSVILLE   CLOUDY    40  29  65 CALM      30.30F
ROANOKE        CLOUDY    36  25  64 S10       30.28F
BLACKSBURG     CLOUDY    32  29  90 E6        30.25F FOG
DUBLIN*        CLOUDY    36  36 100 SE3       30.21F FOG
MARION*        CLOUDY    40  30  67 NE13      30.17F
HILLSVILLE*    FOG       33  33  99 S8        30.18F VSB 1/2
RICHLANDS*     CLOUDY    49  42  75 CALM      30.08F
WISE*          CLOUDY    46  45  93 SW10      30.09F
ABINGDON*      CLOUDY    44  39  83 NE3       30.12F
$$

MDZ021>025-VAZ099-100-031900-
SOUTHERN MARYLAND AND THE DELMARVA PENINSULA

CITY           SKY/WX    TMP DP  RH WIND       PRES   REMARKS
PATUXENT RIVER FRZ RAIN  32  22  66 SE10      30.33F WCI  24
BAY BRIDGE APT LGT RAIN  32  18  55 S8        30.33F
LEONARDTOWN    CLOUDY    32  21  64 S8        30.35F
DOVER          PTSUNNY   31  22  67 E10       30.35F WCI  23
GEORGETOWN     PTSUNNY   34  22  61 SE9       30.35F
EASTON         CLOUDY    36  21  55 SE8       30.37F
CAMBRIDGE      CLOUDY    36  21  55 SE7       30.33F
SALISBURY      CLOUDY    39  22  50 SE8       30.34F
OCEAN CITY     CLOUDY    35  21  56 E3        30.36F
WALLOPS ISLAND CLOUDY    34  24  67 E6        30.35F
ACCOMACK*      CLOUDY    36  25  64 E5        30.35F
$$

NCZ012>017-030>032-031900-
NORTH CENTRAL AND EASTERN NORTH CAROLINA

CITY           SKY/WX    TMP DP  RH WIND       PRES   REMARKS
ROANOKE RAPIDS CLOUDY    36  27  69 CALM      30.33F
RALEIGH        CLOUDY    39  17  41 CALM      30.32F
ELIZABETH CITY CLOUDY    41  31  67 NE6       30.34F
AHOSKIE*       CLOUDY    38  27  64 SE3       30.34F
EDENTON*       CLOUDY    45  33  64 E8        30.33F
CURRITUCK*     CLOUDY    40  28  61 NE6       30.35F
KILL DEVIL HLS CLOUDY    39  33  76 N7        30.32F
MANTEO         CLOUDY    43  32  65 N7        30.34F
CAPE HATTERAS  LGT RAIN  43  38  82 N12G18    30.33F
TARBORO*       CLOUDY    39  27  62 CALM      30.35F
GOLDSBORO      CLOUDY    41  39  93 NE7       30.30F
WASHINGTON     CLOUDY    40  30  68 E5        30.34F
GREENVILLE     DRIZZLE   39  32  75 E3        30.34F
NEW BERN       CLOUDY    45  33  63 E10       30.32F
WILMINGTON     CLOUDY    46  37  71 E6        30.29F
$$

VAZ048-031900-
ELSEWHERE

CITY           SKY/WX    TMP DP  RH WIND       PRES   REMARKS
HARRISBURG PA  FLURRIES  30  14  51 SE12      30.26F WCI  20
BALTIMORE      FRZ RAIN  30  18  60 S6        30.32F
ANNAPOLIS      MIX PCPN  31  19  61 S9        30.33F
ANDREWS AFB    DRIZZLE   32  21  64 SE10      30.30F WCI  24
PHILADELPHIA   CLOUDY    32  12  43 S7        30.34F
HENDERSON NC   CLOUDY    37  16  42 CALM      30.32F
GREENSBORO     CLOUDY    38  29  70 VRB5      30.28F
ROCKY MOUNT    CLOUDY    40  25  55 E5        30.33F
$$

VAZ100-031900-
MARINE

STATION/POSITION TIME  TEMP    WIND        PRES    WAVE   SWELL
                       AIR SEA DIR/SP/G            HT/PER HT/PER
                 (UTC) (F)     (DEG/KT/KT) (MB)    (FT/S) (FT/S)
BRANDYWINE LGT   1800   29 31  160/  8/  9 1028.7F
CAPE MAY NJ      1800   31 33  110/  7/ 10 1028.2F
LEWES DE         1800   33 30  130/  6/ 11 1028.3F
15NM E FENWICK I 1800   35 35              1027.8F   2/ 4
OCEAN-CITY-INLET 1800   33 33   70/  3/  4 1027.8F
WACHAPREAGUE VA  1800   34 34   70/  6/  7 1027.7F
THOMAS POINT MD  1800   30 31  180/ 10/ 12 1028.1F
COVE POINT MD    1800   29     190/ 12/ 13 1027.5F
SOLOMONS ISLAND  1800      33                N/A
BISHOPS HEAD MD  1800   33 33  150/  8/  8 1027.1F
CAMBRIDGE MD     1800   35 32  130/  5/  9 1027.4F
LEWISETTA VA     1800             CALM     1027.1F
RAPPAHANNOCK LGT 1800          130/  6/  7 1027.6F
STINGRAY PT      1800   32 33  210/  4/  6   N/A     1
YORK RVR RNG VA  1800   32     160/  3/  3 1026.8F
YORKTOWN VA      1800   33 34  100/  6/  7 1027.2F
DOMINION TERM VA 1800   34      10/  2/  4 1028.1F
KIPTOPEKE VA     1800      37  100/  6/  8   N/A
CHES BAY BRIDGE  1800   33 33   50/  6/  6 1027.2F
CAPE HENRY VA    1800   34      10/  3/  4 1026.6F
CHESAPEAKE LGHT  1700   35      30/  7/  7 1029.7F
WILLOUBY STN VA  1800           80/  6/  7 1028.2F
S CRANEY ISL VA  1800           40/  5/  6 1027.6F
CAPE HENRY BUOY  1800      35                N/A     3/ 5
1ST LANDING BUOY 1800   33 33   50/  4/  6 1027.1F   1/ 4
OFFSHORE WE BUOY 1700      36                N/A     3/ 5   3/ 5
64NM E OF VA BCH 1800   49 62  110/  2/  6 1027.5F   3/ 6   3/ 6
DUCK PIER NC     1800   35 35   30/ 10/ 10 1026.5F
44100 DUCK FRF   1800      37                N/A     4/ 6
44056 DUCK FRF   1700      35                N/A     3/ 6
OREGON INLET NC  1800   39 38  360/  7/ 13 1026.9F
HATTERAS NC      1800   41 42   30/ 10/ 13 1027.4F
CAPE LOOKOUT NC  1700   44      20/ 13/ 15 1027.1F
$$


USA.gov is the U.S. government's official web portal to all federal, state and local government web resources and services.